Weather History for Charleston, SC

Change the Weather History Date:

Saturday, February 16, 2013

  Actual Average (KCHS) Record (KCHS)
Temperature  
Mean Temperature 46 °F 52 °F  
Max Temperature 55 °F 63 °F 87 °F (1989)
Min Temperature 37 °F 41 °F 19 °F (1991)
Degree Days  
Heating Degree Days 19 13  
Month to date heating degree days 233  
Since 1 July heating degree days 1492  
Cooling Degree Days 0 0  
Month to date cooling degree days 0  
Year to date cooling degree days 2  
Moisture  
Dew Point 37 °F    
Average Humidity 82    
Maximum Humidity 93    
Minimum Humidity 54    
Precipitation  
Precipitation 0.01 in 0.11 in 3.02 in (1998)
Month to date precipitation 1.70  
Year to date precipitation 5.41  
Sea Level Pressure  
Sea Level Pressure 29.92 in    
Wind  
Wind Speed 4 mph (WNW)    
Max Wind Speed 20 mph    
Max Gust Speed 29 mph    
Visibility 9 miles    
Events Rain    
T = Trace of Precipitation, MM = Missing Value Source: NWS Daily Summary

Daily Weather History Graph

Daily Weather History Graph

Search for Another Location

Airport:

Trip Planner

Search our weather history database for the weather conditions in past years. The results will help you decide how hot, cold, wet, or windy it might be!

Date:

Astronomy

Feb. 16, 2013 Rise Set
Actual Time 7:01 AM EST 6:06 PM EST
Civil Twilight 6:36 AM EST 6:31 PM EST
Nautical Twilight 6:07 AM EST 7:00 PM EST
Astronomical Twilight 5:39 AM EST 7:29 PM EST
Moon 10:37 AM EST (2/16) No Moon Set
Length of Visible Light 11h 55m
Length of Day
11h 04m
Waxing Crescent, 39% of the Moon is Illuminated
Feb 16
Waxing Crescent
Feb 17
First Quarter
Feb 25
Full
Mar 4
Last Quarter
Mar 11
New

Hourly Weather History & Observations

Time (EST) Temp. Windchill Dew Point Humidity Pressure Visibility Wind Dir Wind Speed Gust Speed Precip Events Conditions
12:15 AM 41.0 °F - 37.4 °F 87% 29.98 in 10.0 mi Calm Calm - 0.00 in   Clear
12:35 AM 42.8 °F - 39.2 °F 87% 29.98 in 10.0 mi Calm Calm - 0.00 in   Clear
12:55 AM 42.8 °F - 41.0 °F 93% 29.97 in 10.0 mi Calm Calm - 0.00 in   Clear
1:15 AM 42.8 °F - 39.2 °F 87% 29.97 in 10.0 mi Calm Calm - 0.00 in   Clear
1:35 AM 42.8 °F - 39.2 °F 87% 29.97 in 10.0 mi Calm Calm - 0.00 in   Clear
1:55 AM 42.8 °F - 39.2 °F 87% 29.97 in 6.0 mi Calm Calm - 0.00 in   Clear
2:15 AM 41.0 °F - 37.4 °F 87% 29.97 in 10.0 mi Calm Calm - 0.00 in   Clear
2:35 AM 41.0 °F - 37.4 °F 87% 29.96 in 10.0 mi Calm Calm - 0.00 in   Clear
2:55 AM 42.8 °F - 39.2 °F 87% 29.95 in 10.0 mi Calm Calm - 0.00 in   Clear
3:15 AM 42.8 °F - 39.2 °F 87% 29.94 in 8.0 mi Calm Calm - 0.00 in   Clear
3:35 AM 42.8 °F - 39.2 °F 87% 29.93 in 10.0 mi Calm Calm - 0.00 in   Clear
3:55 AM 42.8 °F - 39.2 °F 87% 29.92 in 10.0 mi Calm Calm - 0.00 in   Clear
4:15 AM 42.8 °F - 39.2 °F 87% 29.91 in 7.0 mi Calm Calm - 0.00 in   Clear
4:35 AM 41.0 °F - 39.2 °F 93% 29.91 in 5.0 mi Calm Calm - 0.00 in   Clear
4:55 AM 42.8 °F - 39.2 °F 87% 29.90 in 10.0 mi Calm Calm - 0.00 in   Clear
5:15 AM 42.8 °F - 39.2 °F 87% 29.90 in 8.0 mi Calm Calm - 0.00 in   Clear
5:35 AM 41.0 °F - 37.4 °F 87% 29.90 in 9.0 mi Calm Calm - 0.00 in   Clear
6:15 AM 42.8 °F - 41.0 °F 93% 29.89 in 7.0 mi Calm Calm - 0.00 in   Clear
6:35 AM 39.2 °F - 37.4 °F 93% 29.90 in 9.0 mi Calm Calm - 0.00 in   Clear
7:15 AM 42.8 °F - 39.2 °F 87% 29.90 in 5.0 mi Calm Calm - 0.00 in   Clear
7:35 AM 41.0 °F - 39.2 °F 93% 29.89 in 1.8 mi Calm Calm - 0.00 in   Clear
7:55 AM 41.0 °F - 39.2 °F 93% 29.89 in 8.0 mi Calm Calm - 0.00 in   Clear
8:15 AM 44.6 °F - 42.8 °F 93% 29.88 in 5.0 mi Calm Calm - 0.00 in   Clear
8:35 AM 48.2 °F - 44.6 °F 87% 29.88 in 8.0 mi WNW 5.8 mph - 0.00 in   Clear
8:55 AM 50.0 °F - 44.6 °F 82% 29.88 in 10.0 mi WNW 6.9 mph - 0.00 in   Clear
9:15 AM 50.0 °F - 44.6 °F 82% 29.88 in 10.0 mi WNW 6.9 mph - 0.00 in   Clear
9:35 AM 51.8 °F - 44.6 °F 76% 29.88 in 10.0 mi WNW 8.1 mph - 0.00 in   Clear
9:55 AM 51.8 °F - 42.8 °F 71% 29.88 in 10.0 mi NNW 6.9 mph - 0.00 in   Clear
10:15 AM 53.6 °F - 44.6 °F 72% 29.88 in 10.0 mi NW 4.6 mph - 0.00 in   Clear
10:35 AM 55.4 °F - 42.8 °F 63% 29.87 in 10.0 mi NNW 6.9 mph - 0.00 in   Clear
12:55 PM 53.6 °F - 37.4 °F 54% 29.86 in 10.0 mi NW 17.3 mph 21.9 mph 0.00 in   Mostly Cloudy
1:35 PM 51.8 °F - 35.6 °F 54% 29.85 in 10.0 mi WNW 19.6 mph 24.2 mph 0.00 in   Mostly Cloudy
1:55 PM 50.0 °F - 35.6 °F 58% 29.85 in 10.0 mi NW 17.3 mph 24.2 mph 0.00 in   Mostly Cloudy
2:15 PM 46.4 °F 39.8 °F 35.6 °F 66% 29.87 in 10.0 mi NW 16.1 mph 28.8 mph 0.00 in   Overcast
2:35 PM 42.8 °F 34.3 °F 37.4 °F 81% 29.89 in 3.0 mi WNW 19.6 mph 26.5 mph 0.00 in   Overcast
2:55 PM 42.8 °F 35.8 °F 39.2 °F 87% 29.89 in 6.0 mi NW 13.8 mph 24.2 mph 0.00 in Rain Light Rain
3:15 PM 41.0 °F 33.1 °F 37.4 °F 87% 29.89 in 3.0 mi NW 15.0 mph 21.9 mph 0.00 in   Overcast
3:35 PM 41.0 °F 34.3 °F 37.4 °F 87% 29.90 in 3.0 mi NNW 11.5 mph 18.4 mph 0.01 in   Overcast
3:55 PM 39.2 °F 35.0 °F 37.4 °F 93% 29.87 in 10.0 mi North 5.8 mph - 0.01 in   Mostly Cloudy
4:15 PM 41.0 °F 38.0 °F 37.4 °F 87% 29.86 in 10.0 mi North 4.6 mph - 0.00 in   Scattered Clouds
4:35 PM 42.8 °F 38.6 °F 37.4 °F 81% 29.88 in 10.0 mi West 6.9 mph - 0.00 in   Partly Cloudy
4:55 PM 44.6 °F 41.4 °F 39.2 °F 81% 29.88 in 10.0 mi West 5.8 mph - 0.00 in   Partly Cloudy
5:15 PM 42.8 °F 38.6 °F 37.4 °F 81% 29.88 in 10.0 mi West 6.9 mph - 0.00 in   Partly Cloudy
5:35 PM 42.8 °F 37.5 °F 37.4 °F 81% 29.89 in 10.0 mi West 9.2 mph - 0.00 in   Mostly Cloudy
5:55 PM 42.8 °F 39.3 °F 37.4 °F 81% 29.89 in 10.0 mi West 5.8 mph - 0.00 in   Scattered Clouds
6:15 PM 41.0 °F 38.0 °F 35.6 °F 81% 29.90 in 10.0 mi WSW 4.6 mph - 0.00 in   Clear
6:35 PM 39.2 °F - 35.6 °F 87% 29.90 in 10.0 mi Calm Calm - 0.00 in   Clear
7:15 PM 39.2 °F - 37.4 °F 93% 29.91 in 10.0 mi Calm Calm - 0.00 in   Partly Cloudy
7:35 PM 39.2 °F - 35.6 °F 87% 29.91 in 10.0 mi Calm Calm - 0.00 in   Clear
7:55 PM 39.2 °F 35.9 °F 35.6 °F 87% 29.92 in 10.0 mi WSW 4.6 mph - 0.00 in   Clear
8:15 PM 39.2 °F 34.2 °F 35.6 °F 87% 29.92 in 10.0 mi WSW 6.9 mph - 0.00 in   Clear
8:35 PM 41.0 °F 34.3 °F 33.8 °F 76% 29.93 in 10.0 mi West 11.5 mph 16.1 mph 0.00 in   Clear
8:55 PM 41.0 °F 33.1 °F 30.2 °F 65% 29.94 in 10.0 mi West 15.0 mph 20.7 mph 0.00 in   Clear
9:15 PM 41.0 °F 32.8 °F 28.4 °F 61% 29.97 in 10.0 mi WNW 16.1 mph 23.0 mph 0.00 in   Clear
9:35 PM 39.2 °F 30.5 °F 30.2 °F 70% 29.98 in 10.0 mi NW 16.1 mph 26.5 mph 0.00 in   Clear
10:15 PM 39.2 °F 30.8 °F 30.2 °F 70% 30.01 in 10.0 mi NW 15.0 mph - 0.00 in   Clear
10:35 PM 37.4 °F 30.3 °F 30.2 °F 75% 30.02 in 10.0 mi WNW 10.4 mph - 0.00 in   Clear
10:55 PM 37.4 °F 28.9 °F 30.2 °F 75% 30.03 in 10.0 mi WNW 13.8 mph 19.6 mph 0.00 in   Clear
11:15 PM 37.4 °F 28.9 °F 30.2 °F 75% 30.04 in 10.0 mi WNW 13.8 mph 19.6 mph 0.00 in   Clear
11:35 PM 37.4 °F 29.3 °F 30.2 °F 75% 30.04 in 10.0 mi WNW 12.7 mph - 0.00 in   Clear
11:55 PM 37.4 °F 29.8 °F 30.2 °F 75% 30.05 in 10.0 mi WNW 11.5 mph - 0.00 in   Clear